Volver al catálogo

UM5-EOSAT

ActivoCienciaSSO
NORAD 60555·PAYLOAD·🇲🇦 Morocco

Lanzado Aug 16, 2024 desde Vandenberg Space Force Base

Loading…

Próximos Pases (próximas 24 horas)

TLE

ActualizadoSource: Space-Track

Época: Sep 14, 2026, 10:53 UTC

1 60555U 24149CR  26257.45415481  .00001758  00000-0  13875-3 0  9993
2 60555  97.6654 335.1997 0009132 188.1727 171.9351 15.01976568113613

Sigue UM5-EOSAT en tiempo real con AllMySat

Download on the App Store